Alexandria, LA

3:13 AM CDT on April 23, 2017 (GMT -0500)
Alexandria International

Weather History for KAEX - December, 2007

Change the Weather History Date:

Tuesday, December 11, 2007

  Actual Average Record
Temperature  
Mean Temperature 76 °F 51 °F  
Max Temperature 82 °F 61 °F 82 °F (2007)
Min Temperature 69 °F 41 °F 20 °F (1898)
Degree Days  
Heating Degree Days 0 15  
Month to date heating degree days 63 154  
Since 1 July heating degree days 317 479  
Cooling Degree Days 10    
Growing Degree Days 26 (Base 50)    
Moisture  
Dew Point 66 °F    
Average Humidity 79    
Maximum Humidity 90    
Minimum Humidity 54    
Precipitation  
Precipitation 0.00 in 0.19 in 6.00 in (1964)
Month to date precipitation 0.12 2.75  
Year to date precipitation 44.74 52.55  
Snow  
Snow 0.00 in - T in (1945)
Month to date snowfall 0.0  
Since 1 July snowfall 0.0  
Snow Depth 0.00 in    
Sea Level Pressure  
Sea Level Pressure 30.12 in    
Wind  
Wind Speed 9 mph (SSE)    
Max Wind Speed 16 mph    
Max Gust Speed 23 mph    
Visibility 9 miles    
Events      
T = Trace of Precipitation, MM = Missing Value Source: NWS Daily Summary

Daily Weather History Graph

Daily Weather History Graph

Search for Another Location

Airport or City:

Trip Planner

Search our weather history database for the weather conditions in past years. The results will help you decide how hot, cold, wet, or windy it might be!

Date:

Astronomy

Dec. 11, 2007 Rise Set
Actual Time 6:58 AM CST 5:07 PM CST
Civil Twilight 6:32 AM CST 5:34 PM CST
Nautical Twilight 6:01 AM CST 6:04 PM CST
Astronomical Twilight 5:32 AM CST 6:34 PM CST
Moon 8:48 AM CST (12/11) 6:46 PM CST (12/11)
Length of Visible Light 11h 02m
Length of Day
10h 09m
Waxing Crescent, 4% of the Moon is Illuminated
Dec 11
Waxing Crescent
Dec 17
First Quarter
Dec 23
Full
Dec 31
Last Quarter
Jan 8
New

Hourly Weather History & Observations

Time (CST) Temp. Heat Index Dew Point Humidity Pressure Visibility Wind Dir Wind Speed Gust Speed Precip Events Conditions
12:29 AM 69.8 °F - 66.2 °F 88% 30.13 in 9.0 mi SE 6.9 mph - N/A   Overcast
12:40 AM 69.8 °F - 64.4 °F 83% 30.13 in 8.0 mi SSE 6.9 mph - N/A   Unknown
12:53 AM 69.1 °F - 64.9 °F 87% 30.14 in - North - - N/A   Unknown
1:53 AM 69.1 °F - 66.0 °F 90% 30.14 in 8.0 mi SE 6.9 mph - N/A   Clear
2:23 AM 69.8 °F - 66.2 °F 88% 30.13 in 8.0 mi SE 9.2 mph - N/A   Overcast
2:31 AM 69.8 °F - 66.2 °F 88% 30.13 in - North - - N/A   Unknown
2:40 AM 69.8 °F - - N/A% 30.14 in 8.0 mi SE 8.1 mph - N/A   Overcast
2:53 AM 70.0 °F - 66.0 °F 87% 30.14 in 8.0 mi SE 10.4 mph - N/A   Overcast
3:45 AM 69.8 °F - 66.2 °F 88% 30.13 in 8.0 mi SE 8.1 mph - N/A   Overcast
3:53 AM 70.0 °F - 66.0 °F 87% 30.14 in 8.0 mi SE 9.2 mph - N/A   Overcast
4:24 AM 69.8 °F - 66.2 °F 88% 30.13 in 9.0 mi SE 9.2 mph - N/A   Mist
4:53 AM 70.0 °F - 66.0 °F 87% 30.14 in 9.0 mi SE 9.2 mph - N/A   Mist
5:05 AM 69.8 °F - 64.4 °F 83% 30.12 in 9.0 mi SE 9.2 mph - N/A   Overcast
5:13 AM 69.8 °F - 64.4 °F 83% 30.12 in 8.0 mi SE 9.2 mph - N/A   Clear
5:53 AM 70.0 °F - 64.9 °F 84% 30.14 in 8.0 mi SE 10.4 mph - N/A   Clear
6:53 AM 70.0 °F - 64.9 °F 84% 30.15 in 8.0 mi SE 10.4 mph - N/A   Overcast
7:53 AM 69.1 °F - 64.9 °F 87% 30.15 in 6.0 mi ESE 11.5 mph - N/A   Mostly Cloudy
8:06 AM 69.8 °F - 66.2 °F 88% 30.14 in 6.0 mi SE 13.8 mph - N/A   Mostly Cloudy
8:13 AM 69.8 °F - 66.2 °F 88% 30.14 in 7.0 mi SE 11.5 mph - N/A   Mostly Cloudy
8:20 AM 69.8 °F - 66.2 °F 88% 30.14 in 7.0 mi SE 12.7 mph - N/A   Mostly Cloudy
8:53 AM 71.1 °F - 66.0 °F 84% 30.16 in 9.0 mi SE 12.7 mph - N/A   Mostly Cloudy
9:28 AM 73.4 °F - 66.2 °F 78% 30.15 in 10.0 mi SSE 11.5 mph - N/A   Overcast
9:53 AM 73.0 °F - 66.0 °F 79% 30.16 in 10.0 mi SSE 12.7 mph - N/A   Overcast
10:53 AM 75.9 °F - 64.9 °F 69% 30.15 in 10.0 mi South 9.2 mph 19.6 mph N/A   Overcast
11:12 AM 77.0 °F - 64.4 °F 65% 30.14 in 10.0 mi SSE 16.1 mph 20.7 mph N/A   Overcast
11:19 AM 78.8 °F - 64.4 °F 61% 30.13 in 10.0 mi South 11.5 mph 20.7 mph N/A   Overcast
11:33 AM 78.8 °F - 64.4 °F 61% 30.12 in 10.0 mi SSE 16.1 mph 23.0 mph N/A   Mostly Cloudy
11:53 AM 79.0 °F - 64.9 °F 62% 30.13 in 10.0 mi SSE 11.5 mph - N/A   Mostly Cloudy
12:53 PM 82.0 °F 83.8 °F 64.9 °F 56% 30.10 in 10.0 mi South 11.5 mph 21.9 mph N/A   Overcast
1:53 PM 82.0 °F 83.4 °F 64.0 °F 54% 30.07 in - SSE 10.4 mph - N/A   Mist
2:53 PM 82.0 °F - - N/A% 30.07 in - North - - N/A   Mist
3:53 PM 80.1 °F 81.9 °F 64.9 °F 60% 30.07 in 10.0 mi South 8.1 mph - N/A   Scattered Clouds
4:53 PM 79.0 °F - 66.0 °F 64% 30.08 in 10.0 mi SSE 5.8 mph - N/A   Overcast
5:53 PM 75.9 °F - 66.0 °F 71% 30.08 in 10.0 mi North - - N/A   Mostly Cloudy
6:53 PM 73.9 °F - 66.9 °F 79% 30.09 in - North - - N/A   Unknown
7:53 PM 73.2 °F - 64.9 °F 75% 30.09 in 10.0 mi SSE 5.8 mph - N/A   Scattered Clouds
8:53 PM 73.0 °F - 68.0 °F 84% 30.11 in 10.0 mi SSE 5.8 mph - N/A   Mostly Cloudy
9:53 PM 73.0 °F - 68.0 °F 84% 30.11 in 10.0 mi South 5.8 mph - N/A   Scattered Clouds
10:53 PM 73.0 °F - 67.5 °F 83% 30.12 in 10.0 mi South 4.6 mph - N/A   Mostly Cloudy
11:53 PM 72.0 °F - 66.9 °F 84% 30.13 in 10.0 mi South 3.5 mph - N/A   Mostly Cloudy